[[{"header":{"parameterUnit":"m.s-1","parameterCategory":1,"la1":30.2991,"la2":30.254,"lo1":-89.0895,"lo2":-89.0444,"dy":0.0017,"dx":0.0017,"nx":28,"ny":28,"refTime":"2024-03-26T03:00:00:Z","depth":0,"parameterNumber":2,"parameterNumberName":"U-component_of_WINDS"},"data":[0,0,0,0,0,0,0,0,0,0,0,0,0,0,0,0,0,0,0,0,0,0,0,0,0,0,0,0,0,0,0,0,0,0,0,0,0,0,0,0,0,0,0,0,0,0,0,0,0,0,0,0,0,0,0,0,0,0,-2.7915,-2.7915,0,-2.7982,-2.7982,-2.7983,-2.7955,-2.7953,-2.7951,-2.795,-2.8021,-2.8024,-2.8027,0,0,0,0,0,0,0,0,0,0,0,0,0,-2.7763,-2.7766,-2.7914,-2.7915,-2.7916,-2.7982,-2.7982,-2.7983,-2.7955,-2.7953,-2.7951,-2.7949,-2.8019,-2.8023,-2.8028,0,0,0,0,0,0,0,0,0,0,0,0,0,-2.783,-2.7767,-2.7914,-2.791,-2.791,-2.7981,-2.7983,-2.7984,-2.7955,-2.7953,-2.795,-2.7948,-2.8018,-2.8023,-2.8028,-2.8108,0,0,-2.8044,-2.8046,0,0,0,0,0,0,0,0,-2.7826,-2.7835,-2.791,-2.791,-2.7911,-2.7957,-2.7955,-2.8026,-2.7956,-2.7938,-2.795,-2.7947,-2.8002,-2.8008,-2.8026,-2.8112,-2.8115,-2.8044,-2.8047,-2.8049,-2.8051,0,0,0,0,0,0,0,-2.7821,-2.7832,-2.7941,-2.7911,-2.7911,-2.7905,-2.7912,-2.7968,-2.7983,-2.794,-2.7938,-2.7946,-2.8001,-2.8021,-2.8027,-2.8116,-2.8044,-2.8049,-2.8052,-2.8054,-2.8272,-2.8275,0,0,0,0,0,0,-2.7817,-2.7829,-2.7939,-2.7943,-2.7861,-2.791,-2.7917,-2.7945,-2.7982,-2.7985,-2.7948,-2.7944,-2.8014,-2.8021,-2.803,-2.8127,-2.8049,-2.8054,-2.8057,-2.8269,-2.8273,-2.8276,0,0,0,0,0,0,-2.7813,-2.7827,-2.7936,-2.7885,-2.7899,-2.7915,-2.7946,-2.7947,-2.7967,-2.7988,-2.7991,-2.7965,-2.8012,-2.8023,-2.8089,-2.8129,-2.8056,-2.8061,-2.8266,-2.827,-2.8274,-2.8322,0,0,0,0,0,0,-2.7809,-2.7826,-2.7856,-2.7886,-2.7902,-2.7994,-2.7949,-2.795,-2.7976,-2.7972,-2.8005,-2.8009,-2.8011,-2.8082,-2.8094,-2.8135,-2.8065,-2.8263,-2.8268,-2.8273,-2.8317,-2.8327,-2.8336,0,0,0,0,0,-2.7804,-2.7867,-2.7858,-2.7871,-2.794,-2.7996,-2.8005,-2.8006,-2.7979,-2.801,-2.8024,-2.8008,-2.8123,-2.8089,-2.8103,-2.8145,-2.826,-2.8267,-2.8273,-2.8313,-2.8325,-2.8336,0,0,0,0,0,0,-2.7841,-2.7871,-2.7861,-2.7935,-2.7964,-2.7991,-2.803,-2.8019,-2.8056,-2.8051,-2.8051,-2.8059,-2.8128,-2.8143,-2.8105,-2.8226,-2.8187,-2.8197,-2.8213,-2.8225,-2.8235,-2.823,-2.8069,0,0,0,0,0,-2.7858,-2.7901,-2.7925,-2.7988,-2.8003,-2.8014,-2.8039,-2.8037,-2.8067,-2.8079,-2.8097,-2.8127,-2.817,-2.8198,-2.8239,-2.8319,-2.8327,-2.8355,-2.8365,-2.8372,-2.8381,-2.8425,-2.8439,-2.8296,-2.8296,-2.8296,0,0,-2.7894,-2.7915,-2.7942,-2.7997,-2.8018,-2.8064,-2.8025,-2.8074,-2.8108,-2.8086,-2.8151,-2.8165,-2.8199,-2.8273,-2.8306,-2.8288,-2.8422,-2.838,-2.8386,-2.8391,-2.8433,-2.8447,-2.8459,-2.83,-2.8299,-2.8299,0,0,-2.7982,-2.8002,-2.8057,-2.808,-2.8113,-2.812,-2.8134,-2.8163,-2.8172,-2.8236,-2.8221,-2.8262,-2.8336,-2.836,-2.8382,-2.848,-2.8467,-2.8493,-2.8544,-2.8587,-2.8598,-2.8608,-2.8644,-2.8657,-2.8501,-2.8502,-2.8502,0,-2.8022,-2.8089,-2.8088,-2.8139,-2.8163,-2.8145,-2.8202,-2.8224,-2.8269,-2.8287,-2.8265,-2.8358,-2.8379,-2.8459,-2.8482,-2.8501,-2.8517,-2.849,-2.8597,-2.8607,-2.8616,-2.865,-2.8664,-2.8505,-2.8504,-2.8504,-2.8504,0,-2.8137,-2.8184,-2.8225,-2.8269,-2.8298,-2.8352,-2.8359,-2.8389,-2.8385,-2.8394,-2.8461,-2.8485,-2.8531,-2.8549,-2.8546,-2.8629,-2.8617,-2.8596,-2.8558,-2.8633,-2.8665,-2.8678,-2.8509,-2.8508,-2.8507,-2.8506,0,0,-2.8251,-2.8293,-2.8309,-2.8329,-2.8364,-2.84,-2.8454,-2.8498,-2.8524,-2.8555,-2.8601,-2.8664,-2.8645,-2.867,-2.8669,-2.8707,-2.8784,-2.8682,-2.8682,-2.8701,-2.8879,-2.8895,-2.891,-2.8775,-2.8778,-2.878,-2.8877,0,-2.8343,-2.8436,-2.8436,-2.8522,-2.8566,-2.8549,-2.8596,-2.8623,-2.8633,-2.8673,-2.8684,-2.8729,-2.87,-2.8716,-2.8752,-2.8767,-2.882,-2.876,-2.8819,-2.8821,-2.8812,-2.8927,-2.8944,-2.9035,-2.8889,-2.8891,-2.8893,0,-2.8462,-2.8497,-2.8588,-2.8617,-2.8636,-2.8677,-2.8718,-2.8756,-2.8786,-2.8791,-2.882,-2.8813,-2.8868,-2.8827,-2.8904,-2.8863,-2.8887,-2.8898,-2.8901,-2.8908,-2.8862,-2.8938,-2.9063,-2.9077,-2.8913,-2.8911,-2.891,0,-2.8537,-2.8608,-2.8671,-2.8688,-2.8724,-2.8754,-2.877,-2.8799,-2.8825,-2.8861,-2.8879,-2.8921,-2.8944,-2.8977,-2.8982,-2.8952,-2.906,-2.9019,-2.9067,-2.9067,-2.9091,-2.909,-2.9223,-2.9105,-2.9104,-2.9104,-2.9104,0,-2.864,-2.8696,-2.8705,-2.8744,-2.8807,-2.8807,-2.8869,-2.8883,-2.8909,-2.8951,-2.8939,-2.8979,-2.8983,-2.9024,-2.9028,-2.9092,-2.9102,-2.9109,-2.9109,-2.911,-2.911,-2.9127,-2.9121,-2.9108,-2.9107,-2.9106,-2.9106,0,-2.8736,-2.8744,-2.8812,-2.884,-2.8848,-2.8894,-2.8918,-2.8956,-2.8965,-2.9019,-2.9031,-2.9046,-2.9094,-2.9102,-2.9159,-2.9162,-2.9238,-2.9232,-2.9228,-2.9227,-2.9275,-2.9271,-2.9425,-2.9446,-2.9313,-2.9314,-2.9315,0,-2.8801,-2.8844,-2.8877,-2.8904,-2.8922,-2.8966,-2.8993,-2.8995,-2.9024,-2.9062,-2.9096,-2.9142,-2.918,-2.9258,-2.9274,-2.9318,-2.9313,-2.9365,-2.932,-2.932,-2.9316,-2.9314,-2.9318,-2.9374,-2.9375,-2.9376,-2.9377,0,-2.8917,-2.8919,-2.8958,-2.9,-2.9033,-2.9065,-2.9096,-2.9119,-2.9125,-2.9159,-2.9207,-2.9237,-2.9294,-2.9342,-2.9385,-2.9402,-2.9392,-2.9391,-2.9404,-2.9407,-2.9403,-2.9407,-2.9253,-2.9388,-2.9387,-2.9386,-2.9385,-2.9385,-2.9,-2.9038,-2.9067,-2.9112,-2.9135,-2.9164,-2.9202,-2.9215,-2.9256,-2.9303,-2.9302,-2.9356,-2.9386,-2.9443,-2.9464,-2.9506,-2.949,-2.9509,-2.9515,-2.952,-2.9525,-2.9395,-2.9514,-2.9514,-2.9514,-2.9513,-2.9513,0,-2.9117,-2.9135,-2.9176,-2.9219,-2.9255,-2.924,-2.9274,-2.9305,-2.9352,-2.9381,-2.9418,-2.9475,-2.9521,-2.9541,-2.9586,-2.9616,-2.9613,-2.9628,-2.9627,-2.9631,-2.9536,-2.952,-2.9631,-2.9631,-2.9631,-2.9631,-2.9631,-2.9631,-2.9181,-2.9245,-2.925,-2.9325,-2.9343,-2.9395,-2.9416,-2.9443,-2.9466,-2.953,-2.9568,-2.958,-2.9606,-2.9653,-2.9695,-2.97,-2.9717,-2.9736,-2.9738,-2.965,-2.9638,-2.9626,-2.9612,-2.9739,-2.9739,-2.983,-2.9831,-2.9831]},{"header":{"parameterUnit":"m.s-1","parameterCategory":1,"la1":30.2991,"la2":30.254,"lo1":-89.0895,"lo2":-89.0444,"dy":0.0017,"dx":0.0017,"nx":28,"ny":28,"refTime":"2024-03-26T03:00:00:Z","depth":0,"parameterNumber":3,"parameterNumberName":"V-component_of_WINDS"},"data":[0,0,0,0,0,0,0,0,0,0,0,0,0,0,0,0,0,0,0,0,0,0,0,0,0,0,0,0,0,0,0,0,0,0,0,0,0,0,0,0,0,0,0,0,0,0,0,0,0,0,0,0,0,0,0,0,0,0,-3.8581,-3.8581,0,-3.8617,-3.8618,-3.8618,-3.8574,-3.8572,-3.857,-3.8569,-3.8603,-3.8605,-3.8608,0,0,0,0,0,0,0,0,0,0,0,0,0,-3.8469,-3.8471,-3.8581,-3.8581,-3.8582,-3.8617,-3.8618,-3.8618,-3.8574,-3.8572,-3.857,-3.8568,-3.8602,-3.8605,-3.8608,0,0,0,0,0,0,0,0,0,0,0,0,0,-3.8512,-3.8472,-3.8581,-3.8564,-3.8563,-3.8617,-3.8618,-3.8619,-3.8574,-3.8572,-3.8569,-3.8567,-3.8601,-3.8605,-3.8608,-3.868,0,0,-3.862,-3.8621,0,0,0,0,0,0,0,0,-3.851,-3.8517,-3.8566,-3.8565,-3.8564,-3.8588,-3.8591,-3.8639,-3.8575,-3.857,-3.8569,-3.8566,-3.86,-3.8604,-3.8616,-3.8682,-3.8683,-3.862,-3.8622,-3.8624,-3.8625,0,0,0,0,0,0,0,-3.8507,-3.8515,-3.8595,-3.8567,-3.8565,-3.8553,-3.8557,-3.86,-3.8598,-3.857,-3.8567,-3.8572,-3.8599,-3.8612,-3.8616,-3.8684,-3.862,-3.8623,-3.8625,-3.8627,-3.8811,-3.8814,0,0,0,0,0,0,-3.8506,-3.8513,-3.8594,-3.8596,-3.853,-3.8557,-3.8561,-3.8583,-3.8598,-3.8597,-3.8574,-3.857,-3.8607,-3.8612,-3.8617,-3.8703,-3.8624,-3.8627,-3.8629,-3.8808,-3.8812,-3.8815,0,0,0,0,0,0,-3.8504,-3.8514,-3.8592,-3.8554,-3.8563,-3.8562,-3.8587,-3.8585,-3.8598,-3.8601,-3.86,-3.8588,-3.8605,-3.8612,-3.8665,-3.8703,-3.8629,-3.8632,-3.8805,-3.8809,-3.8813,-3.8874,0,0,0,0,0,0,-3.8501,-3.8514,-3.8542,-3.8555,-3.8565,-3.8641,-3.8589,-3.8588,-3.8605,-3.86,-3.8614,-3.8614,-3.8604,-3.866,-3.8669,-3.8707,-3.8635,-3.8802,-3.8807,-3.8812,-3.8869,-3.888,-3.8889,0,0,0,0,0,-3.8497,-3.8557,-3.8543,-3.8553,-3.86,-3.8643,-3.8649,-3.8638,-3.8609,-3.8636,-3.8638,-3.8613,-3.8698,-3.8666,-3.8675,-3.8715,-3.8799,-3.8806,-3.8811,-3.8864,-3.8878,-3.8889,0,0,0,0,0,0,-3.8547,-3.8558,-3.8543,-3.8609,-3.8626,-3.8636,-3.867,-3.8652,-3.8677,-3.8671,-3.8655,-3.8658,-3.8715,-3.872,-3.8685,-3.8786,-3.8744,-3.8752,-3.878,-3.8793,-3.8803,-3.8801,-3.8638,0,0,0,0,0,-3.8566,-3.8601,-3.8608,-3.8665,-3.8674,-3.8671,-3.8689,-3.868,-3.8696,-3.8702,-3.8707,-3.8723,-3.8753,-3.8773,-3.8801,-3.8869,-3.8872,-3.8901,-3.8912,-3.892,-3.8927,-3.8964,-3.8977,-3.8835,-3.8834,-3.8834,0,0,-3.8604,-3.8615,-3.8638,-3.8675,-3.8687,-3.8723,-3.8677,-3.8717,-3.8743,-3.8708,-3.8759,-3.8763,-3.878,-3.8841,-3.8868,-3.8847,-3.8967,-3.8928,-3.8934,-3.8937,-3.8972,-3.8985,-3.8997,-3.8839,-3.8838,-3.8837,0,0,-3.8693,-3.8705,-3.8754,-3.8767,-3.8786,-3.8784,-3.8795,-3.8808,-3.8811,-3.8862,-3.8836,-3.8866,-3.8918,-3.8931,-3.8945,-3.9039,-3.9018,-3.9049,-3.9102,-3.9138,-3.9149,-3.9159,-3.9193,-3.9206,-3.9056,-3.9056,-3.9056,0,-3.8738,-3.8793,-3.8781,-3.8823,-3.884,-3.8811,-3.886,-3.8873,-3.89,-3.8912,-3.8888,-3.8953,-3.8962,-3.9026,-3.905,-3.9061,-3.9074,-3.9047,-3.9149,-3.9159,-3.9168,-3.92,-3.9213,-3.906,-3.9059,-3.9059,-3.9059,0,-3.8848,-3.8886,-3.8923,-3.8951,-3.8972,-3.9018,-3.9012,-3.9035,-3.9023,-3.9023,-3.9075,-3.9085,-3.9114,-3.9129,-3.9117,-3.9191,-3.9177,-3.9152,-3.9109,-3.9185,-3.9215,-3.9228,-3.9065,-3.9064,-3.9063,-3.9062,0,0,-3.8968,-3.899,-3.9004,-3.9017,-3.9036,-3.9065,-3.9108,-3.9139,-3.9159,-3.9178,-3.9214,-3.9259,-3.9235,-3.9251,-3.924,-3.9272,-3.9346,-3.9242,-3.9242,-3.9261,-3.9429,-3.9449,-3.9463,-3.9332,-3.9334,-3.9336,-3.9428,0,-3.9058,-3.9136,-3.9126,-3.92,-3.9235,-3.9208,-3.9246,-3.9261,-3.9262,-3.9291,-3.9291,-3.9324,-3.929,-3.93,-3.933,-3.9331,-3.938,-3.9324,-3.9365,-3.9366,-3.9362,-3.9479,-3.95,-3.9586,-3.9439,-3.9441,-3.9443,0,-3.9173,-3.9198,-3.9276,-3.929,-3.9305,-3.9339,-3.9366,-3.9395,-3.9411,-3.941,-3.9427,-3.9411,-3.9454,-3.9411,-3.947,-3.9432,-3.9448,-3.9451,-3.9454,-3.9458,-3.941,-3.9486,-3.9613,-3.9626,-3.9461,-3.9459,-3.9458,0,-3.9254,-3.9307,-3.936,-3.9372,-3.939,-3.9415,-3.9424,-3.9438,-3.9457,-3.948,-3.9492,-3.9519,-3.9534,-3.9556,-3.9547,-3.9516,-3.9608,-3.9563,-3.9607,-3.9608,-3.9628,-3.9627,-3.976,-3.9638,-3.9638,-3.9637,-3.9637,0,-3.9355,-3.9403,-3.9397,-3.943,-3.9484,-3.9472,-3.9525,-3.953,-3.9543,-3.9576,-3.9553,-3.9584,-3.9571,-3.9601,-3.9594,-3.9644,-3.9651,-3.965,-3.9648,-3.9653,-3.9653,-3.9663,-3.9657,-3.9641,-3.964,-3.9639,-3.9639,0,-3.9454,-3.9452,-3.9509,-3.9522,-3.9526,-3.9565,-3.9576,-3.9606,-3.9606,-3.9647,-3.9656,-3.9655,-3.9689,-3.9683,-3.972,-3.9715,-3.9778,-3.9768,-3.9773,-3.9771,-3.9815,-3.9811,-3.996,-3.9978,-3.9844,-3.9845,-3.9846,0,-3.9519,-3.9556,-3.9574,-3.9595,-3.9606,-3.964,-3.9659,-3.9649,-3.967,-3.9693,-3.972,-3.9753,-3.9778,-3.9833,-3.9835,-3.9863,-3.9854,-3.9904,-3.9858,-3.9862,-3.9855,-3.9853,-3.9857,-3.9913,-3.9915,-3.9916,-3.9917,0,-3.9635,-3.9632,-3.9662,-3.9692,-3.9717,-3.9739,-3.9759,-3.9778,-3.9769,-3.9794,-3.9829,-3.9849,-3.9888,-3.992,-3.9946,-3.9953,-3.9934,-3.9931,-3.9943,-3.9949,-3.995,-3.995,-3.9798,-3.9928,-3.9927,-3.9926,-3.9926,-3.9925,-3.9719,-3.9751,-3.9769,-3.9803,-3.9818,-3.9837,-3.9867,-3.9871,-3.9901,-3.9933,-3.9924,-3.9964,-3.998,-4.0013,-4.0024,-4.0054,-4.0036,-4.0052,-4.0057,-4.0061,-4.0067,-3.9945,-4.0059,-4.0059,-4.0058,-4.0058,-4.0058,0,-3.9834,-3.9844,-3.9876,-3.9906,-3.9933,-3.9914,-3.9935,-3.9958,-3.9995,-4.0011,-4.0037,-4.0078,-4.0109,-4.0114,-4.0143,-4.0167,-4.0159,-4.0175,-4.0173,-4.0175,-4.0082,-4.0069,-4.0181,-4.0181,-4.0181,-4.0181,-4.0181,-4.0181,-3.9897,-3.995,-3.995,-4.001,-4.002,-4.006,-4.0074,-4.0092,-4.0106,-4.0153,-4.0179,-4.0182,-4.0194,-4.0224,-4.0252,-4.0252,-4.0264,-4.0284,-4.0281,-4.0194,-4.0182,-4.017,-4.0158,-4.0287,-4.0287,-4.0372,-4.0373,-4.0374]}]]